Location: Unspecified
(48.2082°N, 0.0000°E)
Time: 18:51:20
(UTC+00:00)

Transit 4A - Pass Details

Date: 25 June 2019
Orbit: 862 x 982 km, 66.8° (Epoch: 18 July)

Event Time Altitude Azimuth Distance (km) Brightness Sun altitude
Rises 14:54:25 0° 325° (NW) 3,696 11.2 48.0°
Reaches altitude 10° 14:57:10 10° 332° (NNW) 2,741 10.6 47.6°
Maximum altitude 15:03:16 44° 44° (NE) 1,328 8.9 46.7°
Drops below altitude 10° 15:09:14 10° 115° (ESE) 2,679 10.1 45.7°
Sets 15:11:53 0° 122° (ESE) 3,604 10.7 45.3°
